This is the latest recevied weather packets stored in our database for station/object OM4MO-10. If no packets are shown the sender has not sent any weather packets the latest 10 day(s).
| Time | Temp. | Humidity | Pressure | Rain* | Wind** | Luminosity | Snow |
|---|---|---|---|---|---|---|---|
| 1788336748 | 18.33° C | 79% | 1020.7 hPa | - | - | - | - |
| 1788335848 | 21.67° C | 79% | 754.7 hPa | - | - | - | - |
| 1788334946 | 21.67° C | 79% | 754.7 hPa | - | - | - | - |
| 1788334046 | 16.67° C | 79% | 1019.4 hPa | - | - | - | - |
| 1788333146 | 21.67° C | 79% | 754.7 hPa | - | - | - | - |
| 1788332246 | 21.67° C | 79% | 754.7 hPa | - | - | - | - |
| 1788331346 | 21.67° C | 79% | 754.7 hPa | - | - | - | - |
| 1788330445 | 14.44° C | 79% | 1021 hPa | - | - | - | - |
| 1788329545 | 21.67° C | 79% | 754.7 hPa | - | - | - | - |
| 1788328644 | 21.67° C | 79% | 754.7 hPa | - | - | - | - |
| 1788327743 | 13.33° C | 79% | 1023.6 hPa | - | - | - | - |
| 1788326843 | 12.78° C | 79% | 1023.7 hPa | - | - | - | - |
| 1788325943 | 12.22° C | 78% | 1023.6 hPa | - | - | - | - |
| 1788325043 | 11.67° C | 78% | 1023.6 hPa | - | - | - | - |
| 1788324143 | 11.11° C | 78% | 1023.4 hPa | - | - | - | - |
| 1788323243 | 10.56° C | 78% | 1023.3 hPa | - | - | - | - |
| 1788322342 | 10.56° C | 78% | 1023.5 hPa | - | - | - | - |
| 1788321442 | 10.56° C | 78% | 1023.3 hPa | - | - | - | - |
| 1788320542 | 10.56° C | 78% | 1023.1 hPa | - | - | - | - |
| 1788319642 | 10.56° C | 78% | 1023.2 hPa | - | - | - | - |
| 1788318742 | 10.56° C | 78% | 1023.3 hPa | - | - | - | - |
| 1788317842 | 21.67° C | 79% | 754.7 hPa | - | - | - | - |
| 1788316941 | 21.67° C | 79% | 754.7 hPa | - | - | - | - |
| 1788316040 | 10.56° C | 78% | 1023.2 hPa | - | - | - | - |
| 1788315139 | 21.67° C | 79% | 754.7 hPa | - | - | - | - |
* Rain since midnight (hover to see other rain measurements)
** Current wind speed in m/s (hover to see current wind gust speed)